Weather History for PHLI - March, 2014

Change the Weather History Date:

Saturday, March 1, 2014

  Actual Average Record
Temperature  
Mean Temperature 73 °F 72 °F  
Max Temperature 80 °F 78 °F 83 °F (1984)
Min Temperature 66 °F 66 °F 54 °F (1953)
Degree Days  
Heating Degree Days 0 0  
Month to date heating degree days 0 0  
Since 1 July heating degree days 0 0  
Cooling Degree Days 8 7  
Month to date cooling degree days 8 7  
Year to date cooling degree days 384 402  
Growing Degree Days 22 (Base 50)    
Moisture  
Dew Point 65 °F    
Average Humidity 83    
Maximum Humidity 93    
Minimum Humidity 73    
Precipitation  
Precipitation T in 0.14 in 5.15 in (1989)
Month to date precipitation T 0.14  
Year to date precipitation 10.40 7.05  
Snow  
Snow 0.00 in - - ()
Month to date snowfall 0.0  
Since 1 July snowfall 0.0  
Snow Depth 0.00 in    
Sea Level Pressure  
Sea Level Pressure 29.91 in    
Wind  
Wind Speed 6 mph (West)    
Max Wind Speed 21 mph    
Max Gust Speed 24 mph    
Visibility 10 miles    
Events Rain    
T = Trace of Precipitation, MM = Missing Value Source: NWS Daily Summary

Daily Weather History Graph

Daily Weather History Graph

Search for Another Location

Airport or City:

Trip Planner

Search our weather history database for the weather conditions in past years. The results will help you decide how hot, cold, wet, or windy it might be!

Date:

Astronomy

Mar. 01, 2014 Rise Set
Actual Time 6:58 AM HST 6:41 PM HST
Civil Twilight 6:35 AM HST 7:03 PM HST
Nautical Twilight 6:09 AM HST 7:29 PM HST
Astronomical Twilight 5:43 AM HST 7:55 PM HST
Moon 7:07 AM HST (3/1) 7:29 PM HST (3/1)
Length of Visible Light 12h 28m
Length of Day
11h 43m
New Moon, 0% of the Moon is Illuminated
Mar 1
New Moon
Mar 8
First Quarter
Mar 16
Full
Mar 23
Last Quarter
Mar 30
New

Hourly Weather History & Observations

Time (HST) Temp. Dew Point Humidity Pressure Visibility Wind Dir Wind Speed Gust Speed Precip Events Conditions
12:53 AM 71.1 °F 63.0 °F 75% 29.91 in 10.0 mi NW 3.5 mph - N/A   Overcast
1:53 AM 69.1 °F 64.9 °F 87% 29.90 in 10.0 mi Calm Calm - N/A   Partly Cloudy
2:53 AM 68.0 °F 64.9 °F 90% 29.89 in 10.0 mi WSW 3.5 mph - N/A   Clear
3:53 AM 66.9 °F 64.0 °F 90% 29.88 in 10.0 mi West 5.8 mph - N/A   Partly Cloudy
4:53 AM 66.0 °F 64.0 °F 93% 29.88 in 10.0 mi Variable 4.6 mph - N/A   Clear
5:41 AM 66.2 °F 64.4 °F 94% 29.90 in 10.0 mi WSW 3.5 mph - N/A   Mostly Cloudy
5:53 AM 66.9 °F 64.9 °F 93% 29.90 in 10.0 mi WNW 3.5 mph - N/A   Mostly Cloudy
6:53 AM 66.9 °F 64.9 °F 93% 29.91 in 10.0 mi WSW 6.9 mph - N/A   Overcast
7:53 AM 69.1 °F 66.0 °F 90% 29.92 in 10.0 mi WSW 4.6 mph - N/A   Clear
8:53 AM 73.0 °F 68.0 °F 84% 29.93 in 10.0 mi South 5.8 mph - N/A   Clear
9:53 AM 77.0 °F 69.1 °F 76% 29.94 in 10.0 mi South 6.9 mph - N/A   Clear
10:53 AM 78.1 °F 69.1 °F 74% 29.94 in 10.0 mi South 11.5 mph - N/A   Scattered Clouds
11:53 AM 79.0 °F 69.1 °F 72% 29.93 in 10.0 mi NNW 12.7 mph 24.2 mph N/A   Overcast
12:53 PM 75.0 °F 66.9 °F 76% 29.92 in 10.0 mi NE 10.4 mph - N/A   Mostly Cloudy
1:53 PM 73.9 °F 64.9 °F 73% 29.91 in 10.0 mi East 5.8 mph - N/A   Mostly Cloudy
2:53 PM 75.9 °F 66.0 °F 71% 29.88 in 10.0 mi NE 9.2 mph - N/A   Scattered Clouds
3:53 PM 75.9 °F 66.0 °F 71% 29.87 in 10.0 mi Variable 6.9 mph - N/A   Partly Cloudy
4:53 PM 73.9 °F 64.9 °F 73% 29.88 in 10.0 mi ENE 4.6 mph - N/A   Clear
5:53 PM 73.0 °F 64.9 °F 76% 29.89 in 10.0 mi East 4.6 mph - N/A   Clear
6:53 PM 72.0 °F 64.0 °F 76% 29.90 in 10.0 mi East 6.9 mph - N/A   Clear
7:53 PM 71.1 °F 64.0 °F 78% 29.92 in 10.0 mi NNW 3.5 mph - N/A   Clear
8:53 PM 69.1 °F 64.9 °F 87% 29.94 in 10.0 mi West 5.8 mph - N/A   Clear
9:53 PM 68.0 °F 64.9 °F 90% 29.94 in 10.0 mi West 4.6 mph - N/A   Clear
10:53 PM 69.1 °F 64.9 °F 87% 29.95 in 10.0 mi West 3.5 mph - N/A   Overcast
11:53 PM 69.1 °F 66.0 °F 90% 29.95 in 9.0 mi SW 6.9 mph - 0.00 in Rain Light Rain